Data supplied by UK-AIR on 2/5/2024
All Data GMT hour ending 
Status: R =Ratified P=Provisional,P*=As supplied
,,London Honor Oak Park,,,,,,,,,,,,,,,,,,,,,,,
Date,time,"PM<sub>10</sub> particulate matter (Hourly measured)",status,unit,"PM<sub>2.5</sub> particulate matter (Hourly measured)",status,unit
 
01-01-2024,01:00,12.100,P,ugm-3 (FIDAS),8.113,P,ugm-3 (Ref.eq)
01-01-2024,02:00,8.100,P,ugm-3 (FIDAS),5.000,P,ugm-3 (Ref.eq)
01-01-2024,03:00,9.100,P,ugm-3 (FIDAS),4.528,P,ugm-3 (Ref.eq)
01-01-2024,04:00,7.700,P,ugm-3 (FIDAS),3.962,P,ugm-3 (Ref.eq)
01-01-2024,05:00,7.200,P,ugm-3 (FIDAS),4.057,P,ugm-3 (Ref.eq)
01-01-2024,06:00,10.000,P,ugm-3 (FIDAS),5.094,P,ugm-3 (Ref.eq)
01-01-2024,07:00,11.900,P,ugm-3 (FIDAS),5.943,P,ugm-3 (Ref.eq)
01-01-2024,08:00,13.400,P,ugm-3 (FIDAS),6.981,P,ugm-3 (Ref.eq)
01-01-2024,09:00,17.600,P,ugm-3 (FIDAS),8.113,P,ugm-3 (Ref.eq)
01-01-2024,10:00,17.100,P,ugm-3 (FIDAS),8.113,P,ugm-3 (Ref.eq)
01-01-2024,11:00,16.400,P,ugm-3 (FIDAS),7.453,P,ugm-3 (Ref.eq)
01-01-2024,12:00,14.700,P,ugm-3 (FIDAS),6.604,P,ugm-3 (Ref.eq)
01-01-2024,13:00,13.100,P,ugm-3 (FIDAS),6.038,P,ugm-3 (Ref.eq)
01-01-2024,14:00,11.700,P,ugm-3 (FIDAS),5.377,P,ugm-3 (Ref.eq)
01-01-2024,15:00,12.600,P,ugm-3 (FIDAS),6.321,P,ugm-3 (Ref.eq)
01-01-2024,16:00,15.700,P,ugm-3 (FIDAS),7.925,P,ugm-3 (Ref.eq)
01-01-2024,17:00,10.100,P,ugm-3 (FIDAS),6.038,P,ugm-3 (Ref.eq)
01-01-2024,18:00,7.600,P,ugm-3 (FIDAS),5.000,P,ugm-3 (Ref.eq)
01-01-2024,19:00,6.900,P,ugm-3 (FIDAS),4.623,P,ugm-3 (Ref.eq)
01-01-2024,20:00,3.300,P,ugm-3 (FIDAS),2.453,P,ugm-3 (Ref.eq)
01-01-2024,21:00,2.900,P,ugm-3 (FIDAS),2.170,P,ugm-3 (Ref.eq)
01-01-2024,22:00,2.000,P,ugm-3 (FIDAS),1.415,P,ugm-3 (Ref.eq)
01-01-2024,23:00,2.400,P,ugm-3 (FIDAS),1.698,P,ugm-3 (Ref.eq)
01-01-2024,24:00,0.800,P,ugm-3 (FIDAS),0.566,P,ugm-3 (Ref.eq)
02-01-2024,01:00,0.800,P,ugm-3 (FIDAS),0.472,P,ugm-3 (Ref.eq)
02-01-2024,02:00,1.200,P,ugm-3 (FIDAS),0.660,P,ugm-3 (Ref.eq)
02-01-2024,03:00,2.000,P,ugm-3 (FIDAS),1.038,P,ugm-3 (Ref.eq)
02-01-2024,04:00,3.700,P,ugm-3 (FIDAS),1.981,P,ugm-3 (Ref.eq)
02-01-2024,05:00,7.000,P,ugm-3 (FIDAS),3.868,P,ugm-3 (Ref.eq)
02-01-2024,06:00,9.700,P,ugm-3 (FIDAS),5.566,P,ugm-3 (Ref.eq)
02-01-2024,07:00,14.000,P,ugm-3 (FIDAS),8.113,P,ugm-3 (Ref.eq)
02-01-2024,08:00,15.400,P,ugm-3 (FIDAS),9.340,P,ugm-3 (Ref.eq)
02-01-2024,09:00,8.600,P,ugm-3 (FIDAS),5.849,P,ugm-3 (Ref.eq)
02-01-2024,10:00,2.900,P,ugm-3 (FIDAS),1.981,P,ugm-3 (Ref.eq)
02-01-2024,11:00,1.700,P,ugm-3 (FIDAS),0.943,P,ugm-3 (Ref.eq)
02-01-2024,12:00,4.000,P,ugm-3 (FIDAS),2.642,P,ugm-3 (Ref.eq)
02-01-2024,13:00,0.800,P,ugm-3 (FIDAS),0.377,P,ugm-3 (Ref.eq)
02-01-2024,14:00,3.000,P,ugm-3 (FIDAS),1.698,P,ugm-3 (Ref.eq)
02-01-2024,15:00,9.000,P,ugm-3 (FIDAS),5.283,P,ugm-3 (Ref.eq)
02-01-2024,16:00,4.400,P,ugm-3 (FIDAS),1.698,P,ugm-3 (Ref.eq)
02-01-2024,17:00,3.000,P,ugm-3 (FIDAS),1.321,P,ugm-3 (Ref.eq)
02-01-2024,18:00,4.300,P,ugm-3 (FIDAS),2.264,P,ugm-3 (Ref.eq)
02-01-2024,19:00,4.800,P,ugm-3 (FIDAS),2.642,P,ugm-3 (Ref.eq)
02-01-2024,20:00,6.900,P,ugm-3 (FIDAS),3.774,P,ugm-3 (Ref.eq)
02-01-2024,21:00,10.600,P,ugm-3 (FIDAS),5.660,P,ugm-3 (Ref.eq)
02-01-2024,22:00,11.900,P,ugm-3 (FIDAS),6.509,P,ugm-3 (Ref.eq)
02-01-2024,23:00,10.700,P,ugm-3 (FIDAS),6.038,P,ugm-3 (Ref.eq)
02-01-2024,24:00,11.100,P,ugm-3 (FIDAS),6.132,P,ugm-3 (Ref.eq)
03-01-2024,01:00,11.500,P,ugm-3 (FIDAS),6.132,P,ugm-3 (Ref.eq)
03-01-2024,02:00,,,,,,
03-01-2024,03:00,14.000,P,ugm-3 (FIDAS),7.830,P,ugm-3 (Ref.eq)
03-01-2024,04:00,10.500,P,ugm-3 (FIDAS),5.566,P,ugm-3 (Ref.eq)
03-01-2024,05:00,9.200,P,ugm-3 (FIDAS),4.811,P,ugm-3 (Ref.eq)
03-01-2024,06:00,6.900,P,ugm-3 (FIDAS),3.962,P,ugm-3 (Ref.eq)
03-01-2024,07:00,8.900,P,ugm-3 (FIDAS),4.623,P,ugm-3 (Ref.eq)
03-01-2024,08:00,12.800,P,ugm-3 (FIDAS),6.604,P,ugm-3 (Ref.eq)
03-01-2024,09:00,16.700,P,ugm-3 (FIDAS),8.868,P,ugm-3 (Ref.eq)
03-01-2024,10:00,17.800,P,ugm-3 (FIDAS),9.528,P,ugm-3 (Ref.eq)
03-01-2024,11:00,13.800,P,ugm-3 (FIDAS),7.642,P,ugm-3 (Ref.eq)
03-01-2024,12:00,11.900,P,ugm-3 (FIDAS),6.792,P,ugm-3 (Ref.eq)
03-01-2024,13:00,10.100,P,ugm-3 (FIDAS),5.660,P,ugm-3 (Ref.eq)
03-01-2024,14:00,7.400,P,ugm-3 (FIDAS),4.245,P,ugm-3 (Ref.eq)
03-01-2024,15:00,5.000,P,ugm-3 (FIDAS),2.830,P,ugm-3 (Ref.eq)
03-01-2024,16:00,6.600,P,ugm-3 (FIDAS),4.245,P,ugm-3 (Ref.eq)
03-01-2024,17:00,6.500,P,ugm-3 (FIDAS),3.396,P,ugm-3 (Ref.eq)
03-01-2024,18:00,9.200,P,ugm-3 (FIDAS),5.283,P,ugm-3 (Ref.eq)
03-01-2024,19:00,10.500,P,ugm-3 (FIDAS),6.038,P,ugm-3 (Ref.eq)
03-01-2024,20:00,6.000,P,ugm-3 (FIDAS),4.434,P,ugm-3 (Ref.eq)
03-01-2024,21:00,6.900,P,ugm-3 (FIDAS),4.906,P,ugm-3 (Ref.eq)
03-01-2024,22:00,6.800,P,ugm-3 (FIDAS),4.245,P,ugm-3 (Ref.eq)
03-01-2024,23:00,5.500,P,ugm-3 (FIDAS),3.396,P,ugm-3 (Ref.eq)
03-01-2024,24:00,7.700,P,ugm-3 (FIDAS),4.151,P,ugm-3 (Ref.eq)
04-01-2024,01:00,7.000,P,ugm-3 (FIDAS),3.679,P,ugm-3 (Ref.eq)
04-01-2024,02:00,4.500,P,ugm-3 (FIDAS),2.453,P,ugm-3 (Ref.eq)
04-01-2024,03:00,3.200,P,ugm-3 (FIDAS),1.887,P,ugm-3 (Ref.eq)
04-01-2024,04:00,4.800,P,ugm-3 (FIDAS),2.547,P,ugm-3 (Ref.eq)
04-01-2024,05:00,7.900,P,ugm-3 (FIDAS),3.868,P,ugm-3 (Ref.eq)
04-01-2024,06:00,10.700,P,ugm-3 (FIDAS),5.189,P,ugm-3 (Ref.eq)
04-01-2024,07:00,11.500,P,ugm-3 (FIDAS),5.849,P,ugm-3 (Ref.eq)
04-01-2024,08:00,11.500,P,ugm-3 (FIDAS),5.755,P,ugm-3 (Ref.eq)
04-01-2024,09:00,11.500,P,ugm-3 (FIDAS),5.660,P,ugm-3 (Ref.eq)
04-01-2024,10:00,14.500,P,ugm-3 (FIDAS),6.321,P,ugm-3 (Ref.eq)
04-01-2024,11:00,15.200,P,ugm-3 (FIDAS),6.698,P,ugm-3 (Ref.eq)
04-01-2024,12:00,16.100,P,ugm-3 (FIDAS),7.170,P,ugm-3 (Ref.eq)
04-01-2024,13:00,17.100,P,ugm-3 (FIDAS),7.359,P,ugm-3 (Ref.eq)
04-01-2024,14:00,15.100,P,ugm-3 (FIDAS),7.736,P,ugm-3 (Ref.eq)
04-01-2024,15:00,18.700,P,ugm-3 (FIDAS),8.774,P,ugm-3 (Ref.eq)
04-01-2024,16:00,15.200,P,ugm-3 (FIDAS),8.774,P,ugm-3 (Ref.eq)
04-01-2024,17:00,8.400,P,ugm-3 (FIDAS),6.038,P,ugm-3 (Ref.eq)
04-01-2024,18:00,5.400,P,ugm-3 (FIDAS),4.057,P,ugm-3 (Ref.eq)
04-01-2024,19:00,3.100,P,ugm-3 (FIDAS),2.264,P,ugm-3 (Ref.eq)
04-01-2024,20:00,3.700,P,ugm-3 (FIDAS),3.019,P,ugm-3 (Ref.eq)
04-01-2024,21:00,5.500,P,ugm-3 (FIDAS),3.585,P,ugm-3 (Ref.eq)
04-01-2024,22:00,3.200,P,ugm-3 (FIDAS),2.170,P,ugm-3 (Ref.eq)
04-01-2024,23:00,4.200,P,ugm-3 (FIDAS),2.830,P,ugm-3 (Ref.eq)
04-01-2024,24:00,3.000,P,ugm-3 (FIDAS),2.547,P,ugm-3 (Ref.eq)
05-01-2024,01:00,1.700,P,ugm-3 (FIDAS),1.321,P,ugm-3 (Ref.eq)
05-01-2024,02:00,0.900,P,ugm-3 (FIDAS),0.755,P,ugm-3 (Ref.eq)
05-01-2024,03:00,1.100,P,ugm-3 (FIDAS),0.849,P,ugm-3 (Ref.eq)
05-01-2024,04:00,1.400,P,ugm-3 (FIDAS),1.132,P,ugm-3 (Ref.eq)
05-01-2024,05:00,3.500,P,ugm-3 (FIDAS),2.830,P,ugm-3 (Ref.eq)
05-01-2024,06:00,11.500,P,ugm-3 (FIDAS),9.245,P,ugm-3 (Ref.eq)
05-01-2024,07:00,12.400,P,ugm-3 (FIDAS),9.811,P,ugm-3 (Ref.eq)
05-01-2024,08:00,11.700,P,ugm-3 (FIDAS),9.434,P,ugm-3 (Ref.eq)
05-01-2024,09:00,12.600,P,ugm-3 (FIDAS),9.623,P,ugm-3 (Ref.eq)
05-01-2024,10:00,11.000,P,ugm-3 (FIDAS),7.925,P,ugm-3 (Ref.eq)
05-01-2024,11:00,10.200,P,ugm-3 (FIDAS),6.981,P,ugm-3 (Ref.eq)
05-01-2024,12:00,10.200,P,ugm-3 (FIDAS),7.359,P,ugm-3 (Ref.eq)
05-01-2024,13:00,9.900,P,ugm-3 (FIDAS),6.887,P,ugm-3 (Ref.eq)
05-01-2024,14:00,10.000,P,ugm-3 (FIDAS),6.698,P,ugm-3 (Ref.eq)
05-01-2024,15:00,9.100,P,ugm-3 (FIDAS),6.509,P,ugm-3 (Ref.eq)
05-01-2024,16:00,9.200,P,ugm-3 (FIDAS),6.321,P,ugm-3 (Ref.eq)
05-01-2024,17:00,9.900,P,ugm-3 (FIDAS),7.076,P,ugm-3 (Ref.eq)
05-01-2024,18:00,9.800,P,ugm-3 (FIDAS),6.509,P,ugm-3 (Ref.eq)
05-01-2024,19:00,10.400,P,ugm-3 (FIDAS),7.359,P,ugm-3 (Ref.eq)
05-01-2024,20:00,7.500,P,ugm-3 (FIDAS),6.038,P,ugm-3 (Ref.eq)
05-01-2024,21:00,8.000,P,ugm-3 (FIDAS),6.509,P,ugm-3 (Ref.eq)
05-01-2024,22:00,8.300,P,ugm-3 (FIDAS),6.887,P,ugm-3 (Ref.eq)
05-01-2024,23:00,9.300,P,ugm-3 (FIDAS),7.547,P,ugm-3 (Ref.eq)
05-01-2024,24:00,8.300,P,ugm-3 (FIDAS),6.509,P,ugm-3 (Ref.eq)
06-01-2024,01:00,8.500,P,ugm-3 (FIDAS),6.415,P,ugm-3 (Ref.eq)
06-01-2024,02:00,8.400,P,ugm-3 (FIDAS),6.604,P,ugm-3 (Ref.eq)
06-01-2024,03:00,8.100,P,ugm-3 (FIDAS),6.321,P,ugm-3 (Ref.eq)
06-01-2024,04:00,7.900,P,ugm-3 (FIDAS),5.849,P,ugm-3 (Ref.eq)
06-01-2024,05:00,6.400,P,ugm-3 (FIDAS),4.811,P,ugm-3 (Ref.eq)
06-01-2024,06:00,5.700,P,ugm-3 (FIDAS),4.151,P,ugm-3 (Ref.eq)
06-01-2024,07:00,5.900,P,ugm-3 (FIDAS),4.151,P,ugm-3 (Ref.eq)
06-01-2024,08:00,5.700,P,ugm-3 (FIDAS),3.585,P,ugm-3 (Ref.eq)
06-01-2024,09:00,5.900,P,ugm-3 (FIDAS),3.962,P,ugm-3 (Ref.eq)
06-01-2024,10:00,5.200,P,ugm-3 (FIDAS),3.396,P,ugm-3 (Ref.eq)
06-01-2024,11:00,4.900,P,ugm-3 (FIDAS),3.019,P,ugm-3 (Ref.eq)
06-01-2024,12:00,6.000,P,ugm-3 (FIDAS),3.868,P,ugm-3 (Ref.eq)
06-01-2024,13:00,5.000,P,ugm-3 (FIDAS),3.585,P,ugm-3 (Ref.eq)
06-01-2024,14:00,4.500,P,ugm-3 (FIDAS),3.113,P,ugm-3 (Ref.eq)
06-01-2024,15:00,6.100,P,ugm-3 (FIDAS),4.245,P,ugm-3 (Ref.eq)
06-01-2024,16:00,5.800,P,ugm-3 (FIDAS),4.528,P,ugm-3 (Ref.eq)
06-01-2024,17:00,6.000,P,ugm-3 (FIDAS),4.528,P,ugm-3 (Ref.eq)
06-01-2024,18:00,6.800,P,ugm-3 (FIDAS),5.283,P,ugm-3 (Ref.eq)
06-01-2024,19:00,5.700,P,ugm-3 (FIDAS),4.623,P,ugm-3 (Ref.eq)
06-01-2024,20:00,7.700,P,ugm-3 (FIDAS),6.604,P,ugm-3 (Ref.eq)
06-01-2024,21:00,8.600,P,ugm-3 (FIDAS),7.170,P,ugm-3 (Ref.eq)
06-01-2024,22:00,6.500,P,ugm-3 (FIDAS),5.377,P,ugm-3 (Ref.eq)
06-01-2024,23:00,3.800,P,ugm-3 (FIDAS),2.642,P,ugm-3 (Ref.eq)
06-01-2024,24:00,5.400,P,ugm-3 (FIDAS),3.208,P,ugm-3 (Ref.eq)
07-01-2024,01:00,7.300,P,ugm-3 (FIDAS),3.774,P,ugm-3 (Ref.eq)
07-01-2024,02:00,7.600,P,ugm-3 (FIDAS),3.868,P,ugm-3 (Ref.eq)
07-01-2024,03:00,7.800,P,ugm-3 (FIDAS),3.962,P,ugm-3 (Ref.eq)
07-01-2024,04:00,7.400,P,ugm-3 (FIDAS),3.491,P,ugm-3 (Ref.eq)
07-01-2024,05:00,7.700,P,ugm-3 (FIDAS),3.491,P,ugm-3 (Ref.eq)
07-01-2024,06:00,6.800,P,ugm-3 (FIDAS),3.396,P,ugm-3 (Ref.eq)
07-01-2024,07:00,5.800,P,ugm-3 (FIDAS),2.925,P,ugm-3 (Ref.eq)
07-01-2024,08:00,5.300,P,ugm-3 (FIDAS),2.736,P,ugm-3 (Ref.eq)
07-01-2024,09:00,4.800,P,ugm-3 (FIDAS),2.736,P,ugm-3 (Ref.eq)
07-01-2024,10:00,4.400,P,ugm-3 (FIDAS),2.359,P,ugm-3 (Ref.eq)
07-01-2024,11:00,4.900,P,ugm-3 (FIDAS),2.736,P,ugm-3 (Ref.eq)
07-01-2024,12:00,6.700,P,ugm-3 (FIDAS),3.302,P,ugm-3 (Ref.eq)
07-01-2024,13:00,9.000,P,ugm-3 (FIDAS),3.962,P,ugm-3 (Ref.eq)
07-01-2024,14:00,8.400,P,ugm-3 (FIDAS),4.151,P,ugm-3 (Ref.eq)
07-01-2024,15:00,8.200,P,ugm-3 (FIDAS),4.340,P,ugm-3 (Ref.eq)
07-01-2024,16:00,8.200,P,ugm-3 (FIDAS),4.151,P,ugm-3 (Ref.eq)
07-01-2024,17:00,7.900,P,ugm-3 (FIDAS),4.340,P,ugm-3 (Ref.eq)
07-01-2024,18:00,9.200,P,ugm-3 (FIDAS),4.717,P,ugm-3 (Ref.eq)
07-01-2024,19:00,9.200,P,ugm-3 (FIDAS),5.189,P,ugm-3 (Ref.eq)
07-01-2024,20:00,10.900,P,ugm-3 (FIDAS),5.943,P,ugm-3 (Ref.eq)
07-01-2024,21:00,10.800,P,ugm-3 (FIDAS),6.226,P,ugm-3 (Ref.eq)
07-01-2024,22:00,11.100,P,ugm-3 (FIDAS),6.698,P,ugm-3 (Ref.eq)
07-01-2024,23:00,9.700,P,ugm-3 (FIDAS),5.472,P,ugm-3 (Ref.eq)
07-01-2024,24:00,7.900,P,ugm-3 (FIDAS),4.340,P,ugm-3 (Ref.eq)
08-01-2024,01:00,7.000,P,ugm-3 (FIDAS),3.585,P,ugm-3 (Ref.eq)
08-01-2024,02:00,6.800,P,ugm-3 (FIDAS),3.113,P,ugm-3 (Ref.eq)
08-01-2024,03:00,6.900,P,ugm-3 (FIDAS),2.736,P,ugm-3 (Ref.eq)
08-01-2024,04:00,7.100,P,ugm-3 (FIDAS),2.830,P,ugm-3 (Ref.eq)
08-01-2024,05:00,4.900,P,ugm-3 (FIDAS),2.642,P,ugm-3 (Ref.eq)
08-01-2024,06:00,5.300,P,ugm-3 (FIDAS),2.453,P,ugm-3 (Ref.eq)
08-01-2024,07:00,6.000,P,ugm-3 (FIDAS),2.453,P,ugm-3 (Ref.eq)
08-01-2024,08:00,5.300,P,ugm-3 (FIDAS),2.359,P,ugm-3 (Ref.eq)
08-01-2024,09:00,7.100,P,ugm-3 (FIDAS),2.736,P,ugm-3 (Ref.eq)
08-01-2024,10:00,8.900,P,ugm-3 (FIDAS),3.302,P,ugm-3 (Ref.eq)
08-01-2024,11:00,10.300,P,ugm-3 (FIDAS),4.245,P,ugm-3 (Ref.eq)
08-01-2024,12:00,8.800,P,ugm-3 (FIDAS),4.340,P,ugm-3 (Ref.eq)
08-01-2024,13:00,8.700,P,ugm-3 (FIDAS),4.057,P,ugm-3 (Ref.eq)
08-01-2024,14:00,9.300,P,ugm-3 (FIDAS),4.906,P,ugm-3 (Ref.eq)
08-01-2024,15:00,10.000,P,ugm-3 (FIDAS),4.434,P,ugm-3 (Ref.eq)
08-01-2024,16:00,8.200,P,ugm-3 (FIDAS),3.585,P,ugm-3 (Ref.eq)
08-01-2024,17:00,8.900,P,ugm-3 (FIDAS),4.434,P,ugm-3 (Ref.eq)
08-01-2024,18:00,9.400,P,ugm-3 (FIDAS),5.472,P,ugm-3 (Ref.eq)
08-01-2024,19:00,10.000,P,ugm-3 (FIDAS),5.566,P,ugm-3 (Ref.eq)
08-01-2024,20:00,11.500,P,ugm-3 (FIDAS),6.226,P,ugm-3 (Ref.eq)
08-01-2024,21:00,15.000,P,ugm-3 (FIDAS),7.264,P,ugm-3 (Ref.eq)
08-01-2024,22:00,16.000,P,ugm-3 (FIDAS),7.547,P,ugm-3 (Ref.eq)
08-01-2024,23:00,17.400,P,ugm-3 (FIDAS),8.113,P,ugm-3 (Ref.eq)
08-01-2024,24:00,17.400,P,ugm-3 (FIDAS),8.396,P,ugm-3 (Ref.eq)
09-01-2024,01:00,,,,,,
09-01-2024,02:00,15.700,P,ugm-3 (FIDAS),8.208,P,ugm-3 (Ref.eq)
09-01-2024,03:00,14.500,P,ugm-3 (FIDAS),8.113,P,ugm-3 (Ref.eq)
09-01-2024,04:00,15.100,P,ugm-3 (FIDAS),8.113,P,ugm-3 (Ref.eq)
09-01-2024,05:00,16.000,P,ugm-3 (FIDAS),8.113,P,ugm-3 (Ref.eq)
09-01-2024,06:00,15.100,P,ugm-3 (FIDAS),7.830,P,ugm-3 (Ref.eq)
09-01-2024,07:00,15.200,P,ugm-3 (FIDAS),7.830,P,ugm-3 (Ref.eq)
09-01-2024,08:00,15.400,P,ugm-3 (FIDAS),8.208,P,ugm-3 (Ref.eq)
09-01-2024,09:00,16.100,P,ugm-3 (FIDAS),8.208,P,ugm-3 (Ref.eq)
09-01-2024,10:00,17.900,P,ugm-3 (FIDAS),8.396,P,ugm-3 (Ref.eq)
09-01-2024,11:00,16.300,P,ugm-3 (FIDAS),7.359,P,ugm-3 (Ref.eq)
09-01-2024,12:00,14.200,P,ugm-3 (FIDAS),6.415,P,ugm-3 (Ref.eq)
09-01-2024,13:00,14.400,P,ugm-3 (FIDAS),6.509,P,ugm-3 (Ref.eq)
09-01-2024,14:00,,,,,,
09-01-2024,15:00,14.500,P,ugm-3 (FIDAS),6.604,P,ugm-3 (Ref.eq)
09-01-2024,16:00,16.700,P,ugm-3 (FIDAS),6.698,P,ugm-3 (Ref.eq)
09-01-2024,17:00,16.400,P,ugm-3 (FIDAS),6.132,P,ugm-3 (Ref.eq)
09-01-2024,18:00,16.800,P,ugm-3 (FIDAS),6.226,P,ugm-3 (Ref.eq)
09-01-2024,19:00,14.600,P,ugm-3 (FIDAS),6.226,P,ugm-3 (Ref.eq)
09-01-2024,20:00,13.100,P,ugm-3 (FIDAS),6.321,P,ugm-3 (Ref.eq)
09-01-2024,21:00,14.000,P,ugm-3 (FIDAS),6.415,P,ugm-3 (Ref.eq)
09-01-2024,22:00,16.700,P,ugm-3 (FIDAS),7.359,P,ugm-3 (Ref.eq)
09-01-2024,23:00,14.700,P,ugm-3 (FIDAS),6.981,P,ugm-3 (Ref.eq)
09-01-2024,24:00,15.600,P,ugm-3 (FIDAS),6.887,P,ugm-3 (Ref.eq)
10-01-2024,01:00,13.500,P,ugm-3 (FIDAS),6.226,P,ugm-3 (Ref.eq)
10-01-2024,02:00,11.900,P,ugm-3 (FIDAS),5.566,P,ugm-3 (Ref.eq)
10-01-2024,03:00,11.400,P,ugm-3 (FIDAS),5.094,P,ugm-3 (Ref.eq)
10-01-2024,04:00,11.300,P,ugm-3 (FIDAS),4.906,P,ugm-3 (Ref.eq)
10-01-2024,05:00,10.800,P,ugm-3 (FIDAS),4.811,P,ugm-3 (Ref.eq)
10-01-2024,06:00,9.700,P,ugm-3 (FIDAS),4.434,P,ugm-3 (Ref.eq)
10-01-2024,07:00,10.800,P,ugm-3 (FIDAS),4.151,P,ugm-3 (Ref.eq)
10-01-2024,08:00,11.400,P,ugm-3 (FIDAS),4.245,P,ugm-3 (Ref.eq)
10-01-2024,09:00,15.600,P,ugm-3 (FIDAS),7.830,P,ugm-3 (Ref.eq)
10-01-2024,10:00,14.400,P,ugm-3 (FIDAS),6.038,P,ugm-3 (Ref.eq)
10-01-2024,11:00,12.600,P,ugm-3 (FIDAS),4.811,P,ugm-3 (Ref.eq)
10-01-2024,12:00,16.400,P,ugm-3 (FIDAS),6.038,P,ugm-3 (Ref.eq)
10-01-2024,13:00,16.500,P,ugm-3 (FIDAS),5.755,P,ugm-3 (Ref.eq)
10-01-2024,14:00,15.000,P,ugm-3 (FIDAS),5.377,P,ugm-3 (Ref.eq)
10-01-2024,15:00,13.400,P,ugm-3 (FIDAS),5.000,P,ugm-3 (Ref.eq)
10-01-2024,16:00,12.200,P,ugm-3 (FIDAS),4.245,P,ugm-3 (Ref.eq)
10-01-2024,17:00,11.600,P,ugm-3 (FIDAS),4.340,P,ugm-3 (Ref.eq)
10-01-2024,18:00,11.800,P,ugm-3 (FIDAS),5.000,P,ugm-3 (Ref.eq)
10-01-2024,19:00,11.400,P,ugm-3 (FIDAS),5.094,P,ugm-3 (Ref.eq)
10-01-2024,20:00,11.200,P,ugm-3 (FIDAS),5.377,P,ugm-3 (Ref.eq)
10-01-2024,21:00,14.600,P,ugm-3 (FIDAS),6.887,P,ugm-3 (Ref.eq)
10-01-2024,22:00,16.400,P,ugm-3 (FIDAS),7.736,P,ugm-3 (Ref.eq)
10-01-2024,23:00,16.300,P,ugm-3 (FIDAS),8.491,P,ugm-3 (Ref.eq)
10-01-2024,24:00,14.900,P,ugm-3 (FIDAS),8.491,P,ugm-3 (Ref.eq)
11-01-2024,01:00,13.700,P,ugm-3 (FIDAS),8.491,P,ugm-3 (Ref.eq)
11-01-2024,02:00,14.000,P,ugm-3 (FIDAS),9.151,P,ugm-3 (Ref.eq)
11-01-2024,03:00,15.800,P,ugm-3 (FIDAS),10.000,P,ugm-3 (Ref.eq)
11-01-2024,04:00,17.300,P,ugm-3 (FIDAS),11.226,P,ugm-3 (Ref.eq)
11-01-2024,05:00,18.200,P,ugm-3 (FIDAS),12.359,P,ugm-3 (Ref.eq)
11-01-2024,06:00,18.000,P,ugm-3 (FIDAS),12.830,P,ugm-3 (Ref.eq)
11-01-2024,07:00,17.200,P,ugm-3 (FIDAS),12.453,P,ugm-3 (Ref.eq)
11-01-2024,08:00,15.200,P,ugm-3 (FIDAS),10.377,P,ugm-3 (Ref.eq)
11-01-2024,09:00,12.700,P,ugm-3 (FIDAS),6.698,P,ugm-3 (Ref.eq)
11-01-2024,10:00,14.200,P,ugm-3 (FIDAS),7.170,P,ugm-3 (Ref.eq)
11-01-2024,11:00,12.400,P,ugm-3 (FIDAS),7.076,P,ugm-3 (Ref.eq)
11-01-2024,12:00,9.800,P,ugm-3 (FIDAS),5.849,P,ugm-3 (Ref.eq)
11-01-2024,13:00,7.700,P,ugm-3 (FIDAS),4.151,P,ugm-3 (Ref.eq)
11-01-2024,14:00,6.600,P,ugm-3 (FIDAS),3.774,P,ugm-3 (Ref.eq)
11-01-2024,15:00,7.600,P,ugm-3 (FIDAS),3.774,P,ugm-3 (Ref.eq)
11-01-2024,16:00,8.800,P,ugm-3 (FIDAS),4.340,P,ugm-3 (Ref.eq)
11-01-2024,17:00,11.700,P,ugm-3 (FIDAS),5.660,P,ugm-3 (Ref.eq)
11-01-2024,18:00,11.000,P,ugm-3 (FIDAS),6.887,P,ugm-3 (Ref.eq)
11-01-2024,19:00,13.500,P,ugm-3 (FIDAS),8.962,P,ugm-3 (Ref.eq)
11-01-2024,20:00,12.400,P,ugm-3 (FIDAS),7.642,P,ugm-3 (Ref.eq)
11-01-2024,21:00,10.100,P,ugm-3 (FIDAS),6.698,P,ugm-3 (Ref.eq)
11-01-2024,22:00,7.800,P,ugm-3 (FIDAS),5.094,P,ugm-3 (Ref.eq)
11-01-2024,23:00,6.700,P,ugm-3 (FIDAS),4.528,P,ugm-3 (Ref.eq)
11-01-2024,24:00,7.400,P,ugm-3 (FIDAS),4.057,P,ugm-3 (Ref.eq)
12-01-2024,01:00,7.400,P,ugm-3 (FIDAS),4.245,P,ugm-3 (Ref.eq)
12-01-2024,02:00,11.000,P,ugm-3 (FIDAS),5.283,P,ugm-3 (Ref.eq)
12-01-2024,03:00,15.100,P,ugm-3 (FIDAS),6.698,P,ugm-3 (Ref.eq)
12-01-2024,04:00,,,,,,
12-01-2024,05:00,,,,,,
12-01-2024,06:00,,,,,,
12-01-2024,07:00,,,,,,
12-01-2024,08:00,,,,,,
12-01-2024,09:00,,,,,,
12-01-2024,10:00,10.900,P,ugm-3 (FIDAS),5.094,P,ugm-3 (Ref.eq)
12-01-2024,11:00,8.900,P,ugm-3 (FIDAS),4.340,P,ugm-3 (Ref.eq)
12-01-2024,12:00,7.000,P,ugm-3 (FIDAS),3.679,P,ugm-3 (Ref.eq)
12-01-2024,13:00,6.100,P,ugm-3 (FIDAS),3.208,P,ugm-3 (Ref.eq)
12-01-2024,14:00,4.300,P,ugm-3 (FIDAS),2.359,P,ugm-3 (Ref.eq)
12-01-2024,15:00,4.700,P,ugm-3 (FIDAS),2.642,P,ugm-3 (Ref.eq)
12-01-2024,16:00,5.200,P,ugm-3 (FIDAS),3.019,P,ugm-3 (Ref.eq)
12-01-2024,17:00,5.800,P,ugm-3 (FIDAS),3.679,P,ugm-3 (Ref.eq)
12-01-2024,18:00,5.600,P,ugm-3 (FIDAS),4.528,P,ugm-3 (Ref.eq)
12-01-2024,19:00,5.600,P,ugm-3 (FIDAS),4.528,P,ugm-3 (Ref.eq)
12-01-2024,20:00,7.200,P,ugm-3 (FIDAS),5.943,P,ugm-3 (Ref.eq)
12-01-2024,21:00,8.900,P,ugm-3 (FIDAS),7.547,P,ugm-3 (Ref.eq)
12-01-2024,22:00,9.300,P,ugm-3 (FIDAS),8.208,P,ugm-3 (Ref.eq)
12-01-2024,23:00,13.100,P,ugm-3 (FIDAS),11.698,P,ugm-3 (Ref.eq)
12-01-2024,24:00,16.500,P,ugm-3 (FIDAS),14.906,P,ugm-3 (Ref.eq)
13-01-2024,01:00,20.000,P,ugm-3 (FIDAS),17.642,P,ugm-3 (Ref.eq)
13-01-2024,02:00,19.200,P,ugm-3 (FIDAS),17.359,P,ugm-3 (Ref.eq)
13-01-2024,03:00,16.800,P,ugm-3 (FIDAS),14.811,P,ugm-3 (Ref.eq)
13-01-2024,04:00,14.800,P,ugm-3 (FIDAS),13.491,P,ugm-3 (Ref.eq)
13-01-2024,05:00,15.400,P,ugm-3 (FIDAS),13.962,P,ugm-3 (Ref.eq)
13-01-2024,06:00,15.300,P,ugm-3 (FIDAS),13.868,P,ugm-3 (Ref.eq)
13-01-2024,07:00,16.600,P,ugm-3 (FIDAS),14.811,P,ugm-3 (Ref.eq)
13-01-2024,08:00,17.900,P,ugm-3 (FIDAS),15.943,P,ugm-3 (Ref.eq)
13-01-2024,09:00,22.900,P,ugm-3 (FIDAS),20.094,P,ugm-3 (Ref.eq)
13-01-2024,10:00,21.400,P,ugm-3 (FIDAS),18.679,P,ugm-3 (Ref.eq)
13-01-2024,11:00,22.900,P,ugm-3 (FIDAS),19.151,P,ugm-3 (Ref.eq)
13-01-2024,12:00,22.400,P,ugm-3 (FIDAS),18.208,P,ugm-3 (Ref.eq)
13-01-2024,13:00,21.400,P,ugm-3 (FIDAS),17.547,P,ugm-3 (Ref.eq)
13-01-2024,14:00,22.000,P,ugm-3 (FIDAS),16.887,P,ugm-3 (Ref.eq)
13-01-2024,15:00,19.400,P,ugm-3 (FIDAS),15.000,P,ugm-3 (Ref.eq)
13-01-2024,16:00,17.400,P,ugm-3 (FIDAS),13.585,P,ugm-3 (Ref.eq)
13-01-2024,17:00,16.900,P,ugm-3 (FIDAS),14.151,P,ugm-3 (Ref.eq)
13-01-2024,18:00,18.200,P,ugm-3 (FIDAS),15.943,P,ugm-3 (Ref.eq)
13-01-2024,19:00,21.900,P,ugm-3 (FIDAS),18.962,P,ugm-3 (Ref.eq)
13-01-2024,20:00,22.400,P,ugm-3 (FIDAS),18.679,P,ugm-3 (Ref.eq)
13-01-2024,21:00,22.800,P,ugm-3 (FIDAS),19.245,P,ugm-3 (Ref.eq)
13-01-2024,22:00,22.700,P,ugm-3 (FIDAS),20.094,P,ugm-3 (Ref.eq)
13-01-2024,23:00,22.800,P,ugm-3 (FIDAS),20.094,P,ugm-3 (Ref.eq)
13-01-2024,24:00,23.400,P,ugm-3 (FIDAS),20.755,P,ugm-3 (Ref.eq)
14-01-2024,01:00,21.400,P,ugm-3 (FIDAS),18.679,P,ugm-3 (Ref.eq)
14-01-2024,02:00,19.500,P,ugm-3 (FIDAS),17.453,P,ugm-3 (Ref.eq)
14-01-2024,03:00,21.000,P,ugm-3 (FIDAS),18.585,P,ugm-3 (Ref.eq)
14-01-2024,04:00,21.000,P,ugm-3 (FIDAS),18.302,P,ugm-3 (Ref.eq)
14-01-2024,05:00,21.200,P,ugm-3 (FIDAS),18.302,P,ugm-3 (Ref.eq)
14-01-2024,06:00,19.000,P,ugm-3 (FIDAS),16.887,P,ugm-3 (Ref.eq)
14-01-2024,07:00,19.200,P,ugm-3 (FIDAS),16.793,P,ugm-3 (Ref.eq)
14-01-2024,08:00,19.800,P,ugm-3 (FIDAS),17.076,P,ugm-3 (Ref.eq)
14-01-2024,09:00,18.700,P,ugm-3 (FIDAS),16.132,P,ugm-3 (Ref.eq)
14-01-2024,10:00,17.000,P,ugm-3 (FIDAS),14.340,P,ugm-3 (Ref.eq)
14-01-2024,11:00,17.300,P,ugm-3 (FIDAS),14.245,P,ugm-3 (Ref.eq)
14-01-2024,12:00,15.800,P,ugm-3 (FIDAS),12.925,P,ugm-3 (Ref.eq)
14-01-2024,13:00,16.300,P,ugm-3 (FIDAS),11.698,P,ugm-3 (Ref.eq)
14-01-2024,14:00,10.900,P,ugm-3 (FIDAS),6.981,P,ugm-3 (Ref.eq)
14-01-2024,15:00,12.300,P,ugm-3 (FIDAS),8.774,P,ugm-3 (Ref.eq)
14-01-2024,16:00,6.100,P,ugm-3 (FIDAS),3.679,P,ugm-3 (Ref.eq)
14-01-2024,17:00,6.800,P,ugm-3 (FIDAS),3.868,P,ugm-3 (Ref.eq)
14-01-2024,18:00,7.100,P,ugm-3 (FIDAS),5.472,P,ugm-3 (Ref.eq)
14-01-2024,19:00,7.400,P,ugm-3 (FIDAS),5.943,P,ugm-3 (Ref.eq)
14-01-2024,20:00,7.200,P,ugm-3 (FIDAS),5.566,P,ugm-3 (Ref.eq)
14-01-2024,21:00,8.200,P,ugm-3 (FIDAS),5.849,P,ugm-3 (Ref.eq)
14-01-2024,22:00,7.800,P,ugm-3 (FIDAS),6.038,P,ugm-3 (Ref.eq)
14-01-2024,23:00,9.600,P,ugm-3 (FIDAS),8.019,P,ugm-3 (Ref.eq)
14-01-2024,24:00,7.000,P,ugm-3 (FIDAS),5.472,P,ugm-3 (Ref.eq)
15-01-2024,01:00,4.900,P,ugm-3 (FIDAS),3.585,P,ugm-3 (Ref.eq)
15-01-2024,02:00,5.700,P,ugm-3 (FIDAS),3.962,P,ugm-3 (Ref.eq)
15-01-2024,03:00,6.000,P,ugm-3 (FIDAS),4.434,P,ugm-3 (Ref.eq)
15-01-2024,04:00,5.400,P,ugm-3 (FIDAS),3.962,P,ugm-3 (Ref.eq)
15-01-2024,05:00,4.900,P,ugm-3 (FIDAS),3.585,P,ugm-3 (Ref.eq)
15-01-2024,06:00,4.700,P,ugm-3 (FIDAS),3.679,P,ugm-3 (Ref.eq)
15-01-2024,07:00,4.500,P,ugm-3 (FIDAS),2.925,P,ugm-3 (Ref.eq)
15-01-2024,08:00,4.000,P,ugm-3 (FIDAS),2.453,P,ugm-3 (Ref.eq)
15-01-2024,09:00,4.600,P,ugm-3 (FIDAS),2.642,P,ugm-3 (Ref.eq)
15-01-2024,10:00,7.800,P,ugm-3 (FIDAS),3.585,P,ugm-3 (Ref.eq)
15-01-2024,11:00,7.800,P,ugm-3 (FIDAS),3.019,P,ugm-3 (Ref.eq)
15-01-2024,12:00,7.500,P,ugm-3 (FIDAS),2.925,P,ugm-3 (Ref.eq)
15-01-2024,13:00,8.000,P,ugm-3 (FIDAS),3.019,P,ugm-3 (Ref.eq)
15-01-2024,14:00,7.800,P,ugm-3 (FIDAS),3.019,P,ugm-3 (Ref.eq)
15-01-2024,15:00,8.400,P,ugm-3 (FIDAS),2.925,P,ugm-3 (Ref.eq)
15-01-2024,16:00,8.000,P,ugm-3 (FIDAS),2.830,P,ugm-3 (Ref.eq)
15-01-2024,17:00,10.100,P,ugm-3 (FIDAS),3.585,P,ugm-3 (Ref.eq)
15-01-2024,18:00,12.100,P,ugm-3 (FIDAS),5.283,P,ugm-3 (Ref.eq)
15-01-2024,19:00,17.200,P,ugm-3 (FIDAS),8.868,P,ugm-3 (Ref.eq)
15-01-2024,20:00,20.400,P,ugm-3 (FIDAS),11.226,P,ugm-3 (Ref.eq)
15-01-2024,21:00,24.200,P,ugm-3 (FIDAS),12.830,P,ugm-3 (Ref.eq)
15-01-2024,22:00,28.400,P,ugm-3 (FIDAS),18.302,P,ugm-3 (Ref.eq)
15-01-2024,23:00,,,,,,
15-01-2024,24:00,25.000,P,ugm-3 (FIDAS),17.170,P,ugm-3 (Ref.eq)
16-01-2024,01:00,19.700,P,ugm-3 (FIDAS),14.245,P,ugm-3 (Ref.eq)
16-01-2024,02:00,15.600,P,ugm-3 (FIDAS),11.415,P,ugm-3 (Ref.eq)
16-01-2024,03:00,15.000,P,ugm-3 (FIDAS),11.793,P,ugm-3 (Ref.eq)
16-01-2024,04:00,12.500,P,ugm-3 (FIDAS),8.396,P,ugm-3 (Ref.eq)
16-01-2024,05:00,11.100,P,ugm-3 (FIDAS),7.736,P,ugm-3 (Ref.eq)
16-01-2024,06:00,10.800,P,ugm-3 (FIDAS),7.642,P,ugm-3 (Ref.eq)
16-01-2024,07:00,10.600,P,ugm-3 (FIDAS),7.170,P,ugm-3 (Ref.eq)
16-01-2024,08:00,12.600,P,ugm-3 (FIDAS),9.151,P,ugm-3 (Ref.eq)
16-01-2024,09:00,11.400,P,ugm-3 (FIDAS),7.359,P,ugm-3 (Ref.eq)
16-01-2024,10:00,14.700,P,ugm-3 (FIDAS),8.019,P,ugm-3 (Ref.eq)
16-01-2024,11:00,13.100,P,ugm-3 (FIDAS),5.943,P,ugm-3 (Ref.eq)
16-01-2024,12:00,16.900,P,ugm-3 (FIDAS),6.604,P,ugm-3 (Ref.eq)
16-01-2024,13:00,18.700,P,ugm-3 (FIDAS),6.226,P,ugm-3 (Ref.eq)
16-01-2024,14:00,14.500,P,ugm-3 (FIDAS),5.660,P,ugm-3 (Ref.eq)
16-01-2024,15:00,14.400,P,ugm-3 (FIDAS),6.226,P,ugm-3 (Ref.eq)
16-01-2024,16:00,15.100,P,ugm-3 (FIDAS),7.359,P,ugm-3 (Ref.eq)
16-01-2024,17:00,18.700,P,ugm-3 (FIDAS),9.151,P,ugm-3 (Ref.eq)
16-01-2024,18:00,17.500,P,ugm-3 (FIDAS),9.340,P,ugm-3 (Ref.eq)
16-01-2024,19:00,17.300,P,ugm-3 (FIDAS),9.434,P,ugm-3 (Ref.eq)
16-01-2024,20:00,17.400,P,ugm-3 (FIDAS),11.698,P,ugm-3 (Ref.eq)
16-01-2024,21:00,18.200,P,ugm-3 (FIDAS),12.547,P,ugm-3 (Ref.eq)
16-01-2024,22:00,23.000,P,ugm-3 (FIDAS),16.887,P,ugm-3 (Ref.eq)
16-01-2024,23:00,20.900,P,ugm-3 (FIDAS),16.510,P,ugm-3 (Ref.eq)
16-01-2024,24:00,15.500,P,ugm-3 (FIDAS),12.736,P,ugm-3 (Ref.eq)